Flag for U.S.A. Weather past 2 weeks in Oxnard, California, U.S.A.

Now
73 °F

Sunny.


Feels Like: 76 °F
Forecast: 65 / 73 °F
Wind: 16 mph from West

Location: Oxnard Airport

Current Time: Jun 29, 2015 at 4:41:38 PM

Latest Report: Jun 29, 2015 at 3:51 PM


Visibility: 10 mi

Pressure: 29.87 "Hg

Humidity: 59%

Dew point: 58 °F

Location of OxnardLocation

Historic Weather in Oxnard — Graph

°F

Oxnard temperature yesterday

Maximum temperature yesterday: 72 °F (at 10:51 AM)
Minimum temperature yesterday: 63 °F (at 1:51 AM)
Average temperature yesterday: 66 °F

Past Weeks' High & Low Weather Summary

 TemperatureHumidityPressure
High76 °F (Jun 29, 2:51 PM)93% (Jun 19, 3:51 AM)30.03 "Hg (Jun 19, 3:51 AM)
Low58 °F (Jun 16, 4:51 AM)51% (Jun 23, 2:51 PM)29.77 "Hg (Jun 14, 5:51 PM)
Average65 °F76%29.90 "Hg
* Reported Jun 14 2:51 PM — Jun 29 2:51 PM, Oxnard, Weather by CustomWeather, © 2015

Note: Actual official high and low records may vary slightly from our data, if they occured in-between our weather recording intervals... More about our weather records

Advertising

Oxnard weather history for previous 24 hours

 ConditionsComfort  
Time TempWeatherWind HumidityBarometerVisibility
2:51 PM
Mon, Jun 29
76 °FSunny.17 mph52%29.89 "Hg10 mi
1:51 PM75 °FSunny.16 mph55%29.90 "Hg10 mi
12:51 PM74 °FSunny.14 mph56%29.90 "Hg10 mi
11:51 AM75 °FSunny.12 mph54%29.91 "Hg10 mi
10:51 AM72 °FSunny.9 mph64%29.91 "Hg10 mi
9:51 AM71 °FSunny.9 mph61%29.91 "Hg10 mi
8:51 AM68 °FSunny.6 mph70%29.91 "Hg10 mi
7:51 AM64 °FSunny.6 mph81%29.90 "Hg8 mi
6:51 AM63 °FSunny.N/A84%29.89 "Hg7 mi
5:51 AM62 °FClear.3 mph83%29.88 "Hg7 mi
4:51 AM62 °FClear.No wind83%29.86 "Hg7 mi
3:51 AM62 °FClear.No wind83%29.86 "Hg8 mi
2:51 AM63 °FClear.6 mph84%29.87 "Hg8 mi
1:51 AM63 °FClear.5 mph84%29.86 "Hg9 mi
12:51 AM63 °FClear.6 mph84%29.87 "Hg8 mi
11:51 PM
Sun, Jun 28
64 °FClear.7 mph81%29.88 "Hg8 mi
10:51 PM64 °FClear.6 mph81%29.88 "Hg9 mi
9:51 PM65 °FClear.7 mph78%29.88 "Hg9 mi
8:51 PM65 °FSunny.7 mph78%29.88 "Hg9 mi
7:51 PM66 °FSunny.13 mph75%29.87 "Hg9 mi
6:51 PM66 °FSunny.13 mph75%29.87 "Hg9 mi
4:51 PM69 °FSunny.18 mph68%29.88 "Hg9 mi
Weather by CustomWeather, © 2015

See weather overviewHow to use our weather pages